Location: Alfortville
(48.8058°N, 2.4204°E)
Time: 09:14:24
(UTC+00:00)

Cosmos 1844 - Pass Details

Date: 24 October 2021
Orbit: 822 x 868 km, 70.9° (Epoch: 30 November)

Event Time Altitude Azimuth Distance (km) Brightness Sun altitude
Rises 18:11:39 0° 333° (NNW) 3,464 7.3 -15.1°
Reaches altitude 10° 18:14:11 10° 337° (NNW) 2,521 6.5 -15.5°
Maximum altitude 18:19:55 59° 57° (ENE) 991 3.8 -16.5°
Enters shadow 18:24:11 18° 133° (SE) 1,984 5.2 -17.2°
